Location: Laterina
(43.5167°N, 11.7167°E)
Time: 23:37:16
(UTC+00:00)

ARGOS - Visible Passes

Search period start: 23 January 2021 00:00
Search period end: 02 February 2021 00:00
Orbit: 820 x 835 km, 98.4° (Epoch: 23 January)

Date Brightness Start Highest point End Pass type
(mag) Time Alt. Az. Time Alt. Az. Time Alt. Az.
23 Jan 4.7 16:38:32 10° E 16:41:08 14° ENE 16:43:44 10° NNE visible
23 Jan 3.0 18:15:14 10° SSE 18:20:36 89° ENE 18:26:01 10° NNW visible
23 Jan 6.1 19:59:37 10° WSW 20:01:34 12° W 20:03:32 10° WNW visible
24 Jan 3.1 17:56:44 10° SSE 18:02:00 62° ENE 18:07:19 10° N visible
24 Jan 5.6 19:39:07 10° SW 19:42:41 18° W 19:46:17 10° NW visible
25 Jan 3.4 17:38:25 10° SE 17:43:27 43° ENE 17:48:31 10° N visible
25 Jan 5.1 19:19:26 10° SSW 19:23:52 26° W 19:28:20 10° NW visible
26 Jan 6.1 05:56:30 10° NE 05:59:55 17° E 06:03:18 10° SE visible
26 Jan 3.8 17:20:19 10° SE 17:24:57 31° ENE 17:29:37 10° N visible
26 Jan 4.5 19:00:09 10° SSW 19:05:05 37° W 19:10:05 10° NNW visible
27 Jan 6.5 05:39:35 10° ENE 05:41:00 11° E 05:42:26 10° ESE visible
27 Jan 4.2 17:02:28 10° ESE 17:06:30 22° ENE 17:10:33 10° NNE visible
27 Jan 3.8 18:41:08 10° S 18:46:22 55° W 18:51:39 10° NNW visible
28 Jan 3.2 18:22:20 10° S 18:27:42 79° WSW 18:33:07 10° NNW visible
29 Jan 3.0 18:03:45 10° SSE 18:09:05 73° ENE 18:14:28 10° N visible
29 Jan 5.8 19:46:49 10° SW 19:49:53 15° W 19:52:58 10° NW visible
30 Jan 3.3 17:45:21 10° SE 17:50:30 50° ENE 17:55:43 10° N visible
30 Jan 5.4 19:26:55 10° SW 19:31:02 22° W 19:35:12 10° NW visible
31 Jan 3.7 17:27:10 10° SE 17:31:59 35° ENE 17:36:51 10° N visible
31 Jan 4.8 19:07:28 10° SSW 19:12:14 32° W 19:17:03 10° NNW visible
01 Feb 6.3 05:45:43 10° ENE 05:48:14 13° E 05:50:45 10° ESE visible
01 Feb 4.1 17:09:12 10° ESE 17:13:31 25° ENE 17:17:52 10° N visible
01 Feb 4.1 18:48:21 10° S 18:53:30 47° W 18:58:42 10° NNW visible
